Location: Ash Swamp
(41.5170°N, 74.6157°W)
Time: 16:04:12
(UTC+00:00)

Cosmos 407 Rocket - Pass Details

Date: 14 July 2020
Orbit: 744 x 786 km, 74.0° (Epoch: 05 August)

Event Time Altitude Azimuth Distance (km) Brightness Sun altitude
Exits shadow 05:55:49 39° 114° (ESE) 1,174 4.3 -25.8°
Maximum altitude 05:56:15 39° 102° (ESE) 1,161 4.4 -25.8°
Drops below altitude 10° 06:01:12 10° 35° (NE) 2,354 6.9 -25.5°
Sets 06:03:43 0° 28° (NNE) 3,286 8.0 -25.4°
